Observations for Trim Market St
| Time | AQI | Temp °C | Hum % | Pres Pa | CO μg/m³ | H₂S μg/m³ | NO μg/m³ | NO₂ μg/m³ | O₃ μg/m³ | SO₂ μg/m³ | PM1 μg/m³ | PM2.5 μg/m³ | PM10 μg/m³ |
|---|---|---|---|---|---|---|---|---|---|---|---|---|---|
| Saturday 22 August 2026 | |||||||||||||
| 11:07 | 2 | 23.6 | 40 | 65,544 | 0 | 0 | 1.3 | 6.25 | 70.54 | 0 | 0 | 2.34 | 2.57 |
| 11:06 | 2 | 23.7 | 40 | 65,540 | 0.19 | 0 | 1.55 | 6.94 | 68.17 | 0 | 0 | 2.33 | 2.57 |
| 11:03 | 2 | 23.9 | 40 | 65,556 | 0 | 0 | 1.68 | 11.2 | 69.56 | 0 | 0 | 2.34 | 2.58 |
| 10:57 | 2 | 24.3 | 40 | 65,574 | 0 | 0 | 1.65 | 13.73 | 70.32 | 0 | 0 | 2.9 | 3.49 |
| 10:56 | 2 | 24.4 | 40 | 65,566 | 0 | 0 | 1.65 | 12.68 | 68.12 | 0 | 0 | 2.9 | 3.19 |
| 10:55 | 2 | 24.5 | 40 | 65,554 | 0 | 0 | 1.64 | 19.02 | 68.63 | 0 | 0 | 3.43 | 3.78 |
| 10:54 | 2 | 24.6 | 39 | 65,568 | 0.04 | 0 | 1.62 | 12.42 | 70.54 | 0 | 0.71 | 4.5 | 4.95 |
| 10:53 | 2 | 24.7 | 39 | 65,584 | 0.31 | 0 | 1.5 | 11.76 | 70.7 | 0 | 0 | 2.91 | 3.2 |
| 10:52 | 2 | 24.8 | 40 | 65,603 | 0 | 0 | 1.56 | 10.94 | 72.15 | 0 | 0 | 2.9 | 3.19 |
| 10:51 | 2 | 24.9 | 39 | 65,605 | 0.01 | 0 | 1.55 | 8.59 | 72.87 | 0 | 0 | 3.44 | 3.79 |
| 10:50 | 2 | 25 | 39 | 65,607 | 0.02 | 0 | 1.54 | 7.02 | 70.32 | 0 | 0 | 3.98 | 4.38 |
| 10:49 | 2 | 25.1 | 39 | 65,607 | 0 | 0 | 1.59 | 12.35 | 71.32 | 0 | 0 | 2.4 | 2.64 |
| 10:48 | 2 | 25.1 | 39 | 65,607 | 0 | 0 | 1.6 | 14.1 | 71.93 | 0 | 0 | 2.93 | 3.22 |
| 10:47 | 2 | 25.2 | 39 | 65,600 | 0 | 0 | 1.57 | 10.6 | 71.88 | 0 | 0 | 2.92 | 3.21 |
| 10:46 | 2 | 25.2 | 40 | 65,590 | 0.13 | 0 | 1.53 | 11.21 | 58.24 | 0 | 0 | 2.9 | 3.19 |
| 10:45 | 2 | 25.3 | 39 | 65,578 | 0.41 | 0 | 1.57 | 13.06 | 70.05 | 0 | 0 | 2.91 | 3.2 |
| 10:44 | 2 | 25.3 | 39 | 65,560 | 0.5 | 0 | 1.57 | 13.39 | 64.78 | 0 | 0 | 3.44 | 3.79 |
| 10:42 | 2 | 25.2 | 39 | 65,568 | 0.03 | 0 | 1.6 | 14 | 68.13 | 0 | 0 | 2.91 | 3.2 |
| 10:39 | 2 | 25.1 | 40 | 65,570 | 0 | 0 | 1.6 | 21.34 | 70.89 | 0 | 0 | 2.9 | 3.19 |
| 10:33 | 2 | 25 | 40 | 65,607 | 0.24 | 0 | 1.25 | 4.46 | 67.7 | 0 | 0 | 2.9 | 3.19 |